Phoenix Deer Valley, AZ

7:12 PM MST on June 28, 2017 (GMT -0700)
Phoenix-Deer Valley Municipal

Weather History for KDVT - January, 2014

Change the Weather History Date:

Tuesday, January 14, 2014

  Actual Average Record
Temperature  
Mean Temperature 54 °F -  
Max Temperature 70 °F 64 °F 80 °F (2000)
Min Temperature 37 °F 43 °F 24 °F (2013)
Degree Days  
Heating Degree Days 12    
Growing Degree Days 4 (Base 50)    
Moisture  
Dew Point 21 °F    
Average Humidity 30    
Maximum Humidity 53    
Minimum Humidity 14    
Precipitation  
Precipitation 0.00 in - - ()
Sea Level Pressure  
Sea Level Pressure 30.25 in    
Wind  
Wind Speed 4 mph (SSE)    
Max Wind Speed 10 mph    
Max Gust Speed -    
Visibility 10 miles    
Events      
Averages and records for this station are not official NWS values.
T = Trace of Precipitation, MM = Missing Value Source: NWS Daily Summary

Daily Weather History Graph

Daily Weather History Graph

Search for Another Location

Airport or City:

Trip Planner

Search our weather history database for the weather conditions in past years. The results will help you decide how hot, cold, wet, or windy it might be!

Date:

Astronomy

Jan. 14, 2014 Rise Set
Actual Time 7:33 AM MST 5:42 PM MST
Civil Twilight 7:05 AM MST 6:09 PM MST
Nautical Twilight 6:35 AM MST 6:39 PM MST
Astronomical Twilight 6:05 AM MST 7:09 PM MST
Moon 4:49 PM MST (1/14) 6:11 AM MST (1/14)
Length of Visible Light 11h 03m
Length of Day
10h 09m
Waxing Gibbous, 98% of the Moon is Illuminated
Jan 14
Waxing Gibbous
Jan 15
Full
Jan 23
Last Quarter
Jan 30
New
Feb 6
First Quarter

Hourly Weather History & Observations

Time (MST) Temp. Windchill Dew Point Humidity Pressure Visibility Wind Dir Wind Speed Gust Speed Precip Events Conditions
12:53 AM 43.0 °F 39.5 °F 21.0 °F 42% 30.22 in 10.0 mi ESE 5.8 mph - N/A   Clear
1:53 AM 48.9 °F - 19.0 °F 31% 30.22 in 10.0 mi East 10.4 mph - N/A   Clear
2:53 AM 43.0 °F - 21.0 °F 42% 30.23 in 10.0 mi Calm Calm - N/A   Clear
3:53 AM 41.0 °F 39.0 °F 21.9 °F 47% 30.24 in 10.0 mi NE 3.5 mph - N/A   Clear
4:53 AM 45.0 °F - 21.0 °F 39% 30.24 in 10.0 mi Calm Calm - N/A   Clear
5:53 AM 44.1 °F 40.8 °F 19.9 °F 38% 30.25 in 10.0 mi NNE 5.8 mph - N/A   Clear
6:53 AM 37.9 °F - 21.9 °F 53% 30.28 in 10.0 mi Calm Calm - N/A   Clear
7:53 AM 37.9 °F 34.4 °F 21.9 °F 53% 30.29 in 10.0 mi East 4.6 mph - N/A   Clear
8:53 AM 46.0 °F - 23.0 °F 40% 30.32 in 10.0 mi Calm Calm - N/A   Clear
9:53 AM 53.1 °F - 24.1 °F 32% 30.32 in 10.0 mi Calm Calm - N/A   Clear
10:53 AM 57.9 °F - 24.1 °F 27% 30.30 in 10.0 mi South 4.6 mph - N/A   Clear
11:53 AM 62.1 °F - 19.0 °F 19% 30.28 in 10.0 mi South 4.6 mph - N/A   Clear
12:53 PM 66.0 °F - 18.0 °F 16% 30.24 in 8.0 mi Calm Calm - N/A   Clear
1:53 PM 69.1 °F - 17.1 °F 14% 30.20 in 10.0 mi SSW 5.8 mph - N/A   Clear
2:07 PM 69.8 °F - 17.6 °F 14% 30.23 in 2.0 mi SSW 4.6 mph - N/A   Haze
2:16 PM 69.8 °F - 17.6 °F 14% 30.23 in 10.0 mi WSW 3.5 mph - N/A   Clear
2:53 PM 70.0 °F - 19.0 °F 14% 30.19 in 10.0 mi SW 8.1 mph - N/A   Clear
3:53 PM 70.0 °F - 21.0 °F 16% 30.19 in 10.0 mi SSW 5.8 mph - N/A   Clear
4:53 PM 69.1 °F - 21.0 °F 16% 30.20 in 10.0 mi SSW 5.8 mph - N/A   Clear
5:53 PM 66.0 °F - 21.9 °F 19% 30.22 in 10.0 mi Calm Calm - N/A   Clear
6:53 PM 60.1 °F - 25.0 °F 26% 30.24 in 10.0 mi Calm Calm - N/A   Clear
7:53 PM 55.9 °F - 25.0 °F 30% 30.25 in 10.0 mi Calm Calm - N/A   Clear
8:53 PM 52.0 °F - 26.1 °F 37% 30.25 in 10.0 mi Calm Calm - N/A   Clear
9:53 PM 51.1 °F - 26.1 °F 38% 30.26 in 10.0 mi NNE 3.5 mph - N/A   Clear
10:53 PM 52.0 °F - 21.9 °F 31% 30.25 in 10.0 mi East 8.1 mph - N/A   Clear
11:53 PM 52.0 °F - 19.0 °F 27% 30.24 in 10.0 mi Calm Calm - N/A   Clear